Weather History for KRSW - February, 2013

Change the Weather History Date:

Wednesday, February 27, 2013

  Actual Average (KFMY) Record (KFMY)
Temperature  
Mean Temperature 68 °F 68 °F  
Max Temperature 75 °F 79 °F 89 °F (2012)
Min Temperature 62 °F 57 °F 38 °F (1965)
Degree Days  
Heating Degree Days 0 1  
Month to date heating degree days 59  
Since 1 July heating degree days 260  
Cooling Degree Days 4 4  
Month to date cooling degree days 98  
Year to date cooling degree days 181  
Growing Degree Days 18 (Base 50)    
Moisture  
Dew Point 61 °F    
Average Humidity 82    
Maximum Humidity 97    
Minimum Humidity 57    
Precipitation  
Precipitation 0.05 in 0.08 in 2.11 in (1983)
Month to date precipitation 2.06  
Year to date precipitation 4.00  
Sea Level Pressure  
Sea Level Pressure 29.94 in    
Wind  
Wind Speed 2 mph (WNW)    
Max Wind Speed 12 mph    
Max Gust Speed -    
Visibility 8 miles    
Events Rain    
T = Trace of Precipitation, MM = Missing Value Source: NWS Daily Summary

Daily Weather History Graph

Daily Weather History Graph

Search for Another Location

Airport or City:

Trip Planner

Search our weather history database for the weather conditions in past years. The results will help you decide how hot, cold, wet, or windy it might be!

Date:

Astronomy

Feb. 27, 2013 Rise Set
Actual Time 6:52 AM EST 6:27 PM EST
Civil Twilight 6:29 AM EST 6:50 PM EST
Nautical Twilight 6:02 AM EST 7:17 PM EST
Astronomical Twilight 5:35 AM EST 7:44 PM EST
Moon 8:28 PM EST (2/27) 7:42 AM EST (2/27)
Length of Visible Light 12h 21m
Length of Day
11h 34m
Waning Gibbous, 96% of the Moon is Illuminated
Feb 27
Waning Gibbous
Mar 4
Last Quarter
Mar 11
New
Mar 19
First Quarter
Mar 27
Full

Hourly Weather History & Observations

Time (EST) Temp. Dew Point Humidity Pressure Visibility Wind Dir Wind Speed Gust Speed Precip Events Conditions
12:53 AM 68.0 °F 64.0 °F 87% 29.90 in 10.0 mi Calm Calm - N/A   Clear
1:53 AM 66.0 °F 64.0 °F 93% 29.90 in 9.0 mi Calm Calm - N/A   Clear
2:53 AM 66.9 °F 64.9 °F 93% 29.88 in 9.0 mi WNW 3.5 mph - N/A   Clear
3:53 AM 66.0 °F 63.0 °F 90% 29.89 in 8.0 mi NNW 3.5 mph - N/A   Mostly Cloudy
4:53 AM 64.9 °F 63.0 °F 93% 29.91 in 8.0 mi Calm Calm - N/A   Mostly Cloudy
5:07 AM 64.4 °F 62.6 °F 94% 29.91 in 7.0 mi Calm Calm - N/A   Scattered Clouds
5:15 AM 64.4 °F 62.6 °F 94% 29.91 in 7.0 mi Calm Calm - N/A   Mostly Cloudy
5:46 AM 64.4 °F 62.6 °F 94% 29.92 in 6.0 mi Calm Calm - N/A   Scattered Clouds
5:53 AM 64.0 °F 63.0 °F 96% 29.92 in 5.0 mi Calm Calm - N/A   Mostly Cloudy
6:42 AM 62.6 °F 60.8 °F 94% 29.94 in 2.5 mi Calm Calm - N/A   Overcast
6:53 AM 63.0 °F 62.1 °F 97% 29.94 in 3.0 mi Calm Calm - N/A   Overcast
7:53 AM 64.9 °F 63.0 °F 93% 29.94 in 8.0 mi Calm Calm - N/A   Scattered Clouds
8:53 AM 70.0 °F 62.1 °F 76% 29.95 in 10.0 mi North 6.9 mph - N/A   Clear
9:53 AM 71.6 °F 57.2 °F 60% 29.98 in 10.0 mi North 8.1 mph - N/A   Scattered Clouds
10:53 AM 72.0 °F 59.0 °F 64% 29.99 in 10.0 mi North 4.6 mph - N/A   Overcast
11:53 AM 72.0 °F 59.0 °F 64% 29.97 in 10.0 mi NW 4.6 mph - N/A   Mostly Cloudy
12:53 PM 75.0 °F 59.0 °F 57% 29.95 in 10.0 mi North 3.5 mph - 0.00 in   Mostly Cloudy
1:53 PM 73.9 °F 60.1 °F 62% 29.94 in 10.0 mi SW 4.6 mph - N/A   Overcast
2:53 PM 70.0 °F 62.1 °F 76% 29.94 in 9.0 mi SW 11.5 mph - 0.01 in Rain Light Rain
3:53 PM 64.9 °F 60.1 °F 84% 29.93 in 4.0 mi SSW 5.8 mph - 0.03 in Rain Light Rain
4:53 PM 66.0 °F 62.1 °F 87% 29.92 in 10.0 mi SSW 4.6 mph - 0.01 in   Overcast
5:53 PM 66.9 °F 63.0 °F 87% 29.93 in 10.0 mi SW 4.6 mph - 0.00 in   Overcast
6:53 PM 68.0 °F 61.0 °F 78% 29.94 in 10.0 mi WNW 5.8 mph - 0.00 in   Mostly Cloudy
7:53 PM 66.9 °F 60.1 °F 79% 29.95 in 10.0 mi WNW 3.5 mph - N/A   Partly Cloudy
8:53 PM 66.9 °F 60.1 °F 79% 29.96 in 10.0 mi WNW 4.6 mph - N/A   Overcast
9:53 PM 66.0 °F 59.0 °F 78% 29.99 in 10.0 mi NNW 4.6 mph - N/A   Mostly Cloudy
10:53 PM 66.0 °F 57.9 °F 75% 29.98 in 10.0 mi Calm Calm - N/A   Overcast
11:53 PM 64.9 °F 57.9 °F 78% 29.98 in 10.0 mi NNW 3.5 mph - N/A   Mostly Cloudy